Tracking 32577 objects as of 14-Dec-2025
HD Live streaming from Space Station
objects crossing your sky now

CZ-3C DEB

Track CZ-3C DEB now!


NORAD ID: 40203
Int'l Code: 2012-008N
Perigee: 453.3 km
Apogee: 34,611.3 km
Inclination: 20.6 °
Period: 613.0 minutes
Semi major axis: 23903 km
RCS: Unknown
Launch date: February 24, 2012
Source: People's Republic of China (PRC)
Launch site: Xichang Space Center, China (XSC)

Note: This is SATELLITE DEBRIS
Your satellite tracking list
Your tracking list is empty




NASA's NSSDC Master Catalog

Two Line Element Set (TLE):
1 40203U 12008N   25347.43458589  .00001094  00000-0  43770-2 0  9994
2 40203  20.6162 269.1134 7145022  38.3245 355.1372  2.34917778103020
Source of the keplerian elements: AFSPC